Regional Weather Roundup
Issued by NWS

Home | Current Version | Previous Version | Graphics & Text | Print | Product List | Glossary On
Versions: 1 2 3 4 5 6 7 8 9 10 11 12 13 14 15 16 17 18 19 20 21 22 23 24 25 26 27 28 29 30 31 32 33 34 35 36 37 38 39 40 41 42 43 44 45 46 47 48 49 50
000
ASUS43 KLOT 010100
RWRIL

ILLINOIS REGIONAL WEATHER ROUNDUP
NATIONAL WEATHER SERVICE CHICAGO/ROMEOVILLE IL
800 PM CDT TUE SEP 30 2014

NOTE: "FAIR" INDICATES FEW OR NO CLOUDS BELOW 12,000 FEET WITH NO
SIGNIFICANT WEATHER AND/OR OBSTRUCTIONS TO VISIBILITY.

* THESE STATIONS ARE NOT UNDER NWS QUALITY CONTROL. THEY ALSO MAY NOT
  REPORT WEATHER SUCH AS PRECIPITATION OR FOG.

ILZ001-002-007-009-015-016-024-010200-
NORTHWEST ILLINOIS

CITY           SKY/WX    TMP DP  RH WIND       PRES   REMARKS
MOLINE         NOT AVBL
$$

ILZ003-004-008-010-011-017-018-010200-
NORTH CENTRAL ILLINOIS

CITY           SKY/WX    TMP DP  RH WIND       PRES   REMARKS
ROCKFORD       MOCLDY    50  43  77 E7        30.04R
$$

ILZ005-006-012>014-019>023-010200-
NORTHEAST ILLINOIS

CITY           SKY/WX    TMP DP  RH WIND       PRES   REMARKS
CHICAGO-OHARE  CLOUDY    53  49  86 N5        30.01S
CHICAGO-MIDWAY NOT AVBL
AURORA         CLOUDY    55  45  68 NE10      30.02R
WAUKEGAN       CLOUDY    52  50  93 N5        30.01F
DUPAGE AIRPORT CLOUDY    54  47  77 NE8       30.01S
WHEELING       CLOUDY    55  49  80 N3        30.03R
NORTHERLY ISL    N/A     56  47  71 NE8         N/A
$$

LMZ740>746-010200-
SOUTHERN LAKE MICHIGAN

STATION/POSITION SKY/WX   TEMP    WIND        PRES    VSBY  WAVE
                          AIR SEA DIR/SP/G                  HT/PER
                          (F)     (DEG/KT/KT) (MB)    (MI)  (FT/S)
SOUTHERN BUOY              54 62   30/ 12/ 14 1016.3F         4/ 6
WAUKEGAN HARBOR            54      20/ 11/ 13   N/A
HARRISON CRIB              55      50/ 12/ 15   N/A
BURNHAM HARBOR             56      30/ 10/ 15   N/A
CALUMET HARBOR             56      10/  7/ 12 1014.9S
MICHIGAN CITY              54      70/  4/  7   N/A
MICHIGAN CITY 6N           56 64   60/  8/ 14   N/A           4/ 2
ST. JOSEPH                 55 62  100/  6/ 12   N/A           3/ 2
$$

ILZ025>027-034>036-040-047-049-050-058-095>099-010200-
WEST-CENTRAL ILLINOIS

CITY           SKY/WX    TMP DP  RH WIND       PRES   REMARKS
QUINCY         CLEAR     67  59  75 E8        29.88F
$$

ILZ028>032-037-038-041>044-048-051>054-059>061-010200-
CENTRAL ILLINOIS

CITY           SKY/WX    TMP DP  RH WIND       PRES   REMARKS
DECATUR        CLEAR     61  55  81 NE8       29.94S
PEORIA         CLEAR     63  49  60 E13       29.96R
SPRINGFIELD    PTCLDY    64  57  78 NE6       29.92S
TAYLORVILLE    NOT AVBL
$$

ILZ033-039-045-046-055>057-062-063-010200-
EAST-CENTRAL ILLINOIS

CITY           SKY/WX    TMP DP  RH WIND       PRES   REMARKS
MATTOON        CLEAR     63  54  72 NE6       29.94R
$$

ILZ079-100>102-010200-
SOUTHWEST ILLINOIS

CITY           SKY/WX    TMP DP  RH WIND       PRES   REMARKS
BELLEVILLE     CLEAR     73  62  68 E6        29.88R
CAHOKIA*       CLEAR     73  60  63 E3        29.87S
$$

ILZ064>066-069>071-074>076-080>082-084>086-088>090-092>094-010200-
SOUTH-CENTRAL ILLINOIS

CITY           SKY/WX    TMP DP  RH WIND       PRES   REMARKS
CARBONDALE     CLEAR     64  58  80 CALM      29.89R
$$

ILZ067-068-072-073-078-083-087-091-010200-
SOUTHEAST ILLINOIS

CITY           SKY/WX    TMP DP  RH WIND       PRES   REMARKS
LAWRENCEVILLE  CLEAR     66  61  84 NE8       29.92S
$$

ABBREVIATIONS USED IN REMARKS
   TC - TEMPERATURE IN CELSIUS
  WCI - WIND CHILL INDEX
   HX - HEAT INDEX
  VSB - VISIBILITY
$$




USA.gov is the U.S. government's official web portal to all federal, state and local government web resources and services.